User: anonymous   Login
Location: Unspecified
(0.0000°N, 0.0000°E)
Time: 19:33:56
(UTC+00:00)
Language:

Transit 2A Rocket - Orbit

View from above orbital plane
View from above orbital plane
View from above satellite
View from above satellite

Ground track
Ground track

The orbit data is extracted from the following two-line orbital elements,

1    47U 60007C   17115.86166545 +.00000126 +00000-0 +53831-4 0  9993
2    47 066.6669 345.7939 0221413 062.5486 299.7943 14.41913238969098
Epoch (UTC): 25 April 2017 20:40:47
Eccentricity: 0.0221413
inclination: 66.6669°
perigee height: 594 km
apogee height: 910 km
right ascension of ascending node: 345.7939°
argument of perigee: 62.5486°
revolutions per day: 14.41913238
mean anomaly at epoch: 299.7943°
orbit number at epoch: 96909

The dashed part of the orbit path shows where the satellite is in the earth's shadow,  

DLR